Time,TemperatureF,DewpointF,PressureIn,WindDirection,WindDirectionDegrees,WindSpeedMPH,WindSpeedGustMPH,Humidity,HourlyPrecipIn,Conditions,Clouds,dailyrainin,SoftwareType,DateUTC
2013-01-06 07:44:00,24.6,20.5,30.06,West,269,7.0,7.0,84,0.00,,,0.00,Wunderground v.1.15,2013-01-06 13:44:00,
2013-01-06 07:45:00,24.5,20.4,30.06,West,277,7.0,7.0,84,0.00,,,0.00,Wunderground v.1.15,2013-01-06 13:45:00,
2013-01-06 07:46:00,24.5,20.4,30.06,NW,306,7.0,8.0,84,0.00,,,0.00,Wunderground v.1.15,2013-01-06 13:46:00,
2013-01-06 07:48:00,24.5,20.4,30.06,WNW,288,7.0,8.0,84,0.00,,,0.00,Wunderground v.1.15,2013-01-06 13:48:00,
2013-01-06 07:54:00,24.3,19.9,30.06,WNW,300,8.0,8.0,83,0.00,,,0.00,Wunderground v.1.15,2013-01-06 13:54:00,
2013-01-06 07:59:00,23.9,19.8,30.07,West,281,8.0,13.0,84,0.00,,,0.00,Wunderground v.1.15,2013-01-06 13:59:00,
2013-01-06 08:05:00,23.7,19.6,30.07,WNW,300,8.0,10.0,84,0.00,,,0.00,Wunderground v.1.15,2013-01-06 14:05:00,
2013-01-06 08:11:00,23.5,19.4,30.08,WNW,288,8.0,8.0,84,0.00,,,0.00,Wunderground v.1.15,2013-01-06 14:11:00,
2013-01-06 08:16:00,23.4,19.3,30.08,West,280,7.0,9.0,84,0.00,,,0.00,Wunderground v.1.15,2013-01-06 14:16:00,
2013-01-06 08:22:00,23.2,19.1,30.08,West,272,6.0,7.0,84,0.00,,,0.00,Wunderground v.1.15,2013-01-06 14:22:00,
2013-01-06 08:29:00,23.2,19.1,30.08,West,277,5.0,7.0,84,0.00,,,0.00,Wunderground v.1.15,2013-01-06 14:29:00,
2013-01-06 08:34:00,23.3,19.2,30.08,NW,306,5.0,7.0,84,0.00,,,0.00,Wunderground v.1.15,2013-01-06 14:34:00,
2013-01-06 08:39:00,23.4,19.3,30.09,NW,310,6.0,8.0,84,0.00,,,0.00,Wunderground v.1.15,2013-01-06 14:39:00,
2013-01-06 08:45:00,23.5,19.4,30.09,WNW,287,6.0,8.0,84,0.00,,,0.00,Wunderground v.1.15,2013-01-06 14:45:00,
2013-01-06 08:51:00,23.7,19.6,30.09,West,280,7.0,8.0,84,0.00,,,0.00,Wunderground v.1.15,2013-01-06 14:51:00,
2013-01-06 08:57:00,23.6,19.2,30.09,WNW,300,8.0,10.0,83,0.00,,,0.00,Wunderground v.1.15,2013-01-06 14:57:00,
2013-01-06 09:02:00,23.7,19.3,30.10,WNW,300,8.0,10.0,83,0.00,,,0.00,Wunderground v.1.15,2013-01-06 15:02:00,
2013-01-06 09:08:00,23.6,18.9,30.11,West,279,7.0,10.0,82,0.00,,,0.00,Wunderground v.1.15,2013-01-06 15:08:00,
2013-01-06 09:14:00,23.7,19.0,30.11,WNW,288,8.0,12.0,82,0.00,,,0.00,Wunderground v.1.15,2013-01-06 15:14:00,
2013-01-06 09:20:00,23.9,19.2,30.11,NW,307,8.0,8.0,82,0.00,,,0.00,Wunderground v.1.15,2013-01-06 15:20:00,
2013-01-06 09:25:00,24.1,19.7,30.11,WNW,292,7.0,9.0,83,0.00,,,0.00,Wunderground v.1.15,2013-01-06 15:25:00,
2013-01-06 09:31:00,24.1,19.1,30.12,WNW,286,7.0,7.0,81,0.00,,,0.00,Wunderground v.1.15,2013-01-06 15:31:00,
2013-01-06 09:37:00,24.8,20.1,30.12,WNW,292,7.0,9.0,82,0.00,,,0.00,Wunderground v.1.15,2013-01-06 15:37:00,
2013-01-06 09:43:00,24.9,19.6,30.13,WNW,294,7.0,9.0,80,0.00,,,0.00,Wunderground v.1.15,2013-01-06 15:43:00,
2013-01-06 09:48:00,24.4,19.1,30.13,WNW,296,8.0,9.0,80,0.00,,,0.00,Wunderground v.1.15,2013-01-06 15:48:00,
2013-01-06 09:54:00,24.0,18.7,30.13,West,274,8.0,10.0,80,0.00,,,0.00,Wunderground v.1.15,2013-01-06 15:54:00,
2013-01-06 09:59:00,24.4,19.4,30.13,WNW,294,8.0,11.0,81,0.00,,,0.00,Wunderground v.1.15,2013-01-06 15:59:00,
2013-01-06 10:05:00,24.5,19.2,30.14,WNW,298,7.0,11.0,80,0.00,,,0.00,Wunderground v.1.15,2013-01-06 16:05:00,
2013-01-06 10:11:00,24.7,19.4,30.14,WNW,296,7.0,9.0,80,0.00,,,0.00,Wunderground v.1.15,2013-01-06 16:11:00,
2013-01-06 10:16:00,24.6,19.0,30.14,NW,314,7.0,10.0,79,0.00,,,0.00,Wunderground v.1.15,2013-01-06 16:16:00,
2013-01-06 10:22:00,24.7,19.4,30.14,NNW,341,8.0,9.0,80,0.00,,,0.00,Wunderground v.1.15,2013-01-06 16:22:00,
2013-01-06 10:28:00,25.2,19.9,30.14,NW,307,7.0,9.0,80,0.00,,,0.00,Wunderground v.1.15,2013-01-06 16:28:00,
2013-01-06 10:33:00,25.2,20.2,30.15,WNW,298,7.0,7.0,81,0.00,,,0.00,Wunderground v.1.15,2013-01-06 16:33:00,
2013-01-06 10:39:00,25.6,20.6,30.15,WNW,292,6.0,8.0,81,0.00,,,0.00,Wunderground v.1.15,2013-01-06 16:39:00,
2013-01-06 10:44:00,25.3,19.7,30.14,WNW,298,7.0,10.0,79,0.00,,,0.00,Wunderground v.1.15,2013-01-06 16:44:00,
2013-01-06 10:49:00,25.3,20.3,30.15,WNW,283,7.0,10.0,81,0.00,,,0.00,Wunderground v.1.15,2013-01-06 16:49:00,
2013-01-06 10:55:00,25.3,20.3,30.14,WNW,288,6.0,10.0,81,0.00,,,0.00,Wunderground v.1.15,2013-01-06 16:55:00,
2013-01-06 11:00:00,25.2,19.6,30.14,West,281,6.0,9.0,79,0.00,,,0.00,Wunderground v.1.15,2013-01-06 17:00:00,
2013-01-06 11:06:00,25.8,20.5,30.15,West,263,7.0,9.0,80,0.00,,,0.00,Wunderground v.1.15,2013-01-06 17:06:00,
2013-01-06 11:12:00,26.2,20.6,30.14,WNW,303,7.0,7.0,79,0.00,,,0.00,Wunderground v.1.15,2013-01-06 17:12:00,
2013-01-06 11:17:00,26.5,20.9,30.14,NW,309,7.0,7.0,79,0.00,,,0.00,Wunderground v.1.15,2013-01-06 17:17:00,
2013-01-06 11:23:00,26.6,21.0,30.14,WNW,293,7.0,10.0,79,0.00,,,0.00,Wunderground v.1.15,2013-01-06 17:23:00,
2013-01-06 11:29:00,26.7,21.1,30.14,WNW,300,7.0,11.0,79,0.00,,,0.00,Wunderground v.1.15,2013-01-06 17:29:00,
2013-01-06 11:35:00,27.5,21.8,30.15,WNW,291,7.0,9.0,79,0.00,,,0.00,Wunderground v.1.15,2013-01-06 17:35:00,
2013-01-06 11:40:00,28.0,22.3,30.14,WNW,296,7.0,7.0,79,0.00,,,0.00,Wunderground v.1.15,2013-01-06 17:40:00,
2013-01-06 11:46:00,28.1,22.4,30.14,WNW,300,7.0,9.0,79,0.00,,,0.00,Wunderground v.1.15,2013-01-06 17:46:00,
2013-01-06 11:52:00,28.6,22.9,30.14,WNW,299,7.0,8.0,79,0.00,,,0.00,Wunderground v.1.15,2013-01-06 17:52:00,
2013-01-06 11:58:00,28.3,22.6,30.14,NW,308,7.0,8.0,79,0.00,,,0.00,Wunderground v.1.15,2013-01-06 17:58:00,
2013-01-06 12:04:00,28.6,22.6,30.14,NW,315,7.0,8.0,78,0.00,,,0.00,Wunderground v.1.15,2013-01-06 18:04:00,
2013-01-06 12:09:00,28.6,22.9,30.14,NW,307,6.0,8.0,79,0.00,,,0.00,Wunderground v.1.15,2013-01-06 18:09:00,
2013-01-06 12:15:00,29.2,23.5,30.14,NW,309,6.0,7.0,79,0.00,,,0.00,Wunderground v.1.15,2013-01-06 18:15:00,
2013-01-06 12:21:00,29.6,23.3,30.14,NW,310,6.0,8.0,77,0.00,,,0.00,Wunderground v.1.15,2013-01-06 18:21:00,
2013-01-06 12:26:00,29.8,23.5,30.15,NW,319,7.0,9.0,77,0.00,,,0.00,Wunderground v.1.15,2013-01-06 18:26:00,
2013-01-06 12:31:00,29.7,23.4,30.15,WNW,300,7.0,10.0,77,0.00,,,0.00,Wunderground v.1.15,2013-01-06 18:31:00,
2013-01-06 12:37:00,29.7,23.7,30.15,WNW,296,7.0,10.0,78,0.00,,,0.00,Wunderground v.1.15,2013-01-06 18:37:00,
2013-01-06 12:42:00,29.8,23.5,30.15,WNW,282,8.0,10.0,77,0.00,,,0.00,Wunderground v.1.15,2013-01-06 18:42:00,
2013-01-06 12:48:00,29.7,23.4,30.15,WNW,289,8.0,10.0,77,0.00,,,0.00,Wunderground v.1.15,2013-01-06 18:48:00,
2013-01-06 12:54:00,29.9,23.9,30.15,NW,308,8.0,10.0,78,0.00,,,0.00,Wunderground v.1.15,2013-01-06 18:54:00,
2013-01-06 13:00:00,30.2,24.2,30.16,WNW,297,7.0,7.0,78,0.00,,,0.00,Wunderground v.1.15,2013-01-06 19:00:00,
2013-01-06 13:05:00,30.3,24.0,30.16,WNW,294,7.0,7.0,77,0.00,,,0.00,Wunderground v.1.15,2013-01-06 19:05:00,
2013-01-06 13:11:00,30.2,23.9,30.16,NW,304,7.0,8.0,77,0.00,,,0.00,Wunderground v.1.15,2013-01-06 19:11:00,
2013-01-06 13:17:00,30.3,24.0,30.16,West,272,7.0,8.0,77,0.00,,,0.00,Wunderground v.1.15,2013-01-06 19:17:00,
2013-01-06 13:22:00,30.4,24.4,30.16,WNW,294,6.0,7.0,78,0.00,,,0.00,Wunderground v.1.15,2013-01-06 19:22:00,
2013-01-06 13:28:00,30.3,24.0,30.16,WNW,284,6.0,10.0,77,0.00,,,0.00,Wunderground v.1.15,2013-01-06 19:28:00,
2013-01-06 13:34:00,30.4,24.4,30.17,NW,316,7.0,7.0,78,0.00,,,0.00,Wunderground v.1.15,2013-01-06 19:34:00,
2013-01-06 13:40:00,30.8,24.1,30.17,West,274,7.0,7.0,76,0.00,,,0.00,Wunderground v.1.15,2013-01-06 19:40:00,
2013-01-06 13:45:00,30.6,23.9,30.17,NW,311,7.0,10.0,76,0.00,,,0.00,Wunderground v.1.15,2013-01-06 19:45:00,
2013-01-06 13:51:00,30.7,24.3,30.17,NW,305,7.0,8.0,77,0.00,,,0.00,Wunderground v.1.15,2013-01-06 19:51:00,
2013-01-06 13:57:00,31.0,24.3,30.17,West,275,7.0,10.0,76,0.00,,,0.00,Wunderground v.1.15,2013-01-06 19:57:00,
2013-01-06 14:04:00,31.3,24.6,30.18,WNW,295,7.0,7.0,76,0.00,,,0.00,Wunderground v.1.15,2013-01-06 20:04:00,
2013-01-06 14:09:00,31.6,24.9,30.18,WNW,293,7.0,8.0,76,0.00,,,0.00,Wunderground v.1.15,2013-01-06 20:09:00,
2013-01-06 14:12:00,31.8,25.1,30.18,NW,304,6.0,7.0,76,0.00,,,0.00,Wunderground v.1.15,2013-01-06 20:12:00,
2013-01-06 14:14:00,31.9,24.9,30.18,NW,309,6.0,8.0,75,0.00,,,0.00,Wunderground v.1.15,2013-01-06 20:14:00,
2013-01-06 14:20:00,31.9,24.9,30.18,WNW,295,7.0,7.0,75,0.00,,,0.00,Wunderground v.1.15,2013-01-06 20:20:00,
2013-01-06 14:25:00,32.0,25.0,30.18,West,281,6.0,8.0,75,0.00,,,0.00,Wunderground v.1.15,2013-01-06 20:25:00,
2013-01-06 14:31:00,32.2,25.2,30.18,WNW,303,6.0,6.0,75,0.00,,,0.00,Wunderground v.1.15,2013-01-06 20:31:00,
2013-01-06 14:37:00,32.2,24.8,30.18,WSW,254,6.0,9.0,74,0.00,,,0.00,Wunderground v.1.15,2013-01-06 20:37:00,
2013-01-06 14:43:00,32.4,25.4,30.19,NW,306,6.0,6.0,75,0.00,,,0.00,Wunderground v.1.15,2013-01-06 20:43:00,
2013-01-06 14:48:00,32.5,25.5,30.19,WNW,296,6.0,7.0,75,0.00,,,0.00,Wunderground v.1.15,2013-01-06 20:48:00,
2013-01-06 14:53:00,32.6,25.2,30.20,WNW,294,7.0,8.0,74,0.00,,,0.00,Wunderground v.1.15,2013-01-06 20:53:00,
2013-01-06 14:59:00,32.8,25.4,30.20,NW,321,7.0,8.0,74,0.00,,,0.00,Wunderground v.1.15,2013-01-06 20:59:00,
2013-01-06 15:05:00,32.9,25.5,30.21,WNW,300,6.0,8.0,74,0.00,,,0.00,Wunderground v.1.15,2013-01-06 21:05:00,
2013-01-06 15:09:00,32.9,25.2,30.21,NW,312,7.0,8.0,73,0.00,,,0.00,Wunderground v.1.15,2013-01-06 21:09:00,
2013-01-06 15:15:00,32.9,25.2,30.21,WNW,298,7.0,7.0,73,0.00,,,0.00,Wunderground v.1.15,2013-01-06 21:15:00,
2013-01-06 15:20:00,32.8,25.1,30.22,WNW,290,7.0,9.0,73,0.00,,,0.00,Wunderground v.1.15,2013-01-06 21:20:00,
2013-01-06 15:25:00,32.8,25.4,30.22,West,277,7.0,9.0,74,0.00,,,0.00,Wunderground v.1.15,2013-01-06 21:25:00,
2013-01-06 15:31:00,32.7,25.0,30.22,WNW,299,6.0,7.0,73,0.00,,,0.00,Wunderground v.1.15,2013-01-06 21:31:00,
2013-01-06 15:37:00,32.6,24.9,30.23,NW,315,6.0,7.0,73,0.00,,,0.00,Wunderground v.1.15,2013-01-06 21:37:00,
2013-01-06 15:43:00,32.5,25.1,30.23,WNW,301,5.0,8.0,74,0.00,,,0.00,Wunderground v.1.15,2013-01-06 21:43:00,
2013-01-06 15:48:00,32.3,24.9,30.23,WNW,297,6.0,8.0,74,0.00,,,0.00,Wunderground v.1.15,2013-01-06 21:48:00,
2013-01-06 15:54:00,32.1,24.7,30.23,NW,321,6.0,6.0,74,0.00,,,0.00,Wunderground v.1.15,2013-01-06 21:54:00,
2013-01-06 15:59:00,31.9,24.9,30.24,NW,304,6.0,7.0,75,0.00,,,0.00,Wunderground v.1.15,2013-01-06 21:59:00,